NSS-10

Last updated on Sun Jun 21 2026 00:03:03 GMT+0000 (Coordinated Universal Time)

1 28526U 05003A 26171.28277340 -.00000258 00000+0 00000+0 0 9995 2 28526 6.4581 70.4174 0002852 12.1151 250.3009 1.00272014 53183
UTC large
Height (km)
Speed (km/s)
/
Latitude / Longitude
Inclination (degrees)
Orbital Period (minutes)
Azimuth
Elevation
Range (km)
Doppler Factor

Next 0 passes for location: London (51.5072 / 0.1276)

No passes found over London.
NSS-10